Location: The Saddle
(36.8333°N, 80.3417°W)
Time: 23:15:55
(UTC-05:00)

A-11 Canister half - All Passes

Search period start: 29 January 2023 00:00
Search period end: 08 February 2023 00:00
Orbit: 1514 x 1686 km, 47.2° (Epoch: 29 January)

Date Brightness Start Highest point End Pass type
(mag) Time Alt. Az. Time Alt. Az. Time Alt. Az.
29 Jan - 11:06:57 10° SSW 11:16:08 47° SE 11:25:01 10° ENE daylight
29 Jan - 13:11:13 10° WSW 13:20:51 69° NNW 13:30:11 10° ENE daylight
29 Jan - 15:18:04 10° WNW 15:27:02 44° N 15:35:48 10° ENE daylight
29 Jan - 17:24:12 10° WNW 17:33:24 59° NNE 17:42:30 10° E daylight
29 Jan - 19:29:22 10° WNW 19:38:22 58° SW 19:47:23 10° SE visible
29 Jan - 21:37:54 10° W 21:41:47 13° WSW 21:45:43 10° SSW visible
30 Jan - 10:44:09 10° SSW 10:53:14 44° SE 11:02:01 10° ENE daylight
30 Jan - 12:48:10 10° WSW 12:57:52 72° NNW 13:07:15 10° ENE daylight
30 Jan - 14:55:01 10° WNW 15:04:00 45° N 15:12:48 10° ENE daylight
30 Jan - 17:01:14 10° WNW 17:10:25 57° NNE 17:19:29 10° E daylight
30 Jan - 19:06:24 10° WNW 19:15:28 62° SW 19:24:33 10° SE visible
30 Jan - 21:14:21 10° W 21:18:58 15° WSW 21:23:37 10° SSW visible
31 Jan - 10:21:23 10° SSW 10:30:20 41° SE 10:39:00 10° ENE daylight
31 Jan - 12:25:09 10° WSW 12:34:53 75° NNW 12:44:19 10° ENE daylight
31 Jan - 14:31:55 10° WNW 14:40:58 45° N 14:49:48 10° ENE daylight
31 Jan - 16:38:15 10° WNW 16:47:26 56° NNE 16:56:28 10° E daylight
31 Jan - 18:43:26 10° WNW 18:52:34 66° SW 19:01:42 10° SE visible
31 Jan - 20:50:55 10° W 20:56:08 17° SW 21:01:23 10° SSW visible
01 Feb - 09:58:37 10° SSW 10:07:27 38° SE 10:16:00 10° ENE daylight
01 Feb - 12:02:07 10° WSW 12:11:55 78° NNW 12:21:23 10° ENE daylight
01 Feb - 14:08:51 10° W 14:17:57 46° N 14:26:48 10° ENE daylight
01 Feb - 16:15:16 10° WNW 16:24:27 54° NNE 16:33:27 10° E daylight
01 Feb - 18:20:28 10° WNW 18:29:40 70° SW 18:38:50 10° SE visible
01 Feb - 20:27:36 10° W 20:33:18 18° SW 20:39:02 10° SSW visible
02 Feb - 09:35:53 10° SSW 09:44:33 36° SE 09:52:58 10° ENE daylight
02 Feb - 11:39:07 10° WSW 11:48:57 81° NNW 11:58:28 10° ENE daylight
02 Feb - 13:45:46 10° W 13:54:55 46° N 14:03:48 10° ENE daylight
02 Feb - 15:52:17 10° WNW 16:01:27 53° NNE 16:10:25 10° E daylight
02 Feb - 17:57:31 10° WNW 18:06:46 74° SW 18:15:58 10° SE visible
02 Feb - 20:04:19 10° W 20:10:28 20° SW 20:16:38 10° SSW visible
03 Feb - 09:13:11 10° S 09:21:40 33° SE 09:29:55 10° ENE daylight
03 Feb - 11:16:07 10° WSW 11:26:00 85° NNW 11:35:32 10° ENE daylight
03 Feb - 13:22:40 10° W 13:31:53 47° N 13:40:50 10° ENE daylight
03 Feb - 15:29:17 10° WNW 15:38:26 51° NNE 15:47:23 10° E daylight
03 Feb - 17:34:33 10° WNW 17:43:52 78° SW 17:53:05 10° SE daylight
03 Feb - 19:41:07 10° W 19:47:38 22° SW 19:54:11 10° S visible
04 Feb - 08:50:29 10° S 08:58:47 31° SE 09:06:51 10° ENE daylight
04 Feb - 10:53:07 10° SW 11:03:02 88° NW 11:12:36 10° ENE daylight
04 Feb - 12:59:35 10° W 13:08:51 48° NNW 13:17:51 10° ENE daylight
04 Feb - 15:06:17 10° WNW 15:15:26 50° NNE 15:24:21 10° E daylight
04 Feb - 17:11:35 10° WNW 17:20:57 82° SW 17:30:11 10° SE daylight
04 Feb - 19:17:56 10° WNW 19:24:47 24° SW 19:31:40 10° S visible
05 Feb - 08:27:49 10° S 08:35:54 29° SE 08:43:46 10° ENE daylight
05 Feb - 10:30:09 10° SW 10:40:05 88° SE 10:49:40 10° ENE daylight
05 Feb - 12:36:30 10° W 12:45:50 49° NNW 12:54:52 10° ENE daylight
05 Feb - 14:43:15 10° WNW 14:52:24 49° NNE 15:01:20 10° E daylight
05 Feb - 16:48:38 10° WNW 16:58:02 86° SW 17:07:17 10° SE daylight
05 Feb - 18:54:47 10° WNW 19:01:57 26° SW 19:09:07 10° S visible
06 Feb - 08:05:12 10° S 08:13:01 27° SE 08:20:39 10° ENE daylight
06 Feb - 10:07:10 10° SW 10:17:08 84° SE 10:26:44 10° ENE daylight
06 Feb - 12:13:24 10° W 12:22:48 50° NNW 12:31:54 10° ENE daylight
06 Feb - 14:20:14 10° WNW 14:29:24 48° NNE 14:38:18 10° E daylight
06 Feb - 16:25:40 10° WNW 16:35:06 90° SW 16:44:21 10° SE daylight
06 Feb - 18:31:40 10° WNW 18:39:06 28° SW 18:46:32 10° S visible
07 Feb - 07:42:37 10° S 07:50:09 25° SE 07:57:31 10° ENE daylight
07 Feb - 09:44:13 10° SW 09:54:10 81° SE 10:03:47 10° ENE daylight
07 Feb - 11:50:18 10° W 11:59:46 51° NNW 12:08:56 10° ENE daylight
07 Feb - 13:57:12 10° WNW 14:06:22 47° N 14:15:16 10° E daylight
07 Feb - 16:02:42 10° WNW 16:12:10 87° NNE 16:21:26 10° ESE daylight
07 Feb - 18:08:33 10° WNW 18:16:16 30° SW 18:23:56 10° S visible
